This demonstration page uses our WeatherBlox Daily Observations layout. Learn more.

41.55636, -103.73856

Hourly Observations for January 1, 2016

Temp ( °F °C ) Dew Point ( °F °C ) Humidity (%) Winds ( mph kmh ) Pressure ( in mb ) Visibility ( mi km ) Precip ( " mm )
12:53 am 00:53 Clear 4 -15.6 -1 -18.3 80 80 NNW 8 13 30.6 1036 10 16.0934 0 0
1:53 am 01:53 Clear 4 -15.6 -2 -18.9 76 76 NNW 9 15 30.58 1036 10 16.0934 0 0
2:53 am 02:53 Clear 1 -17.2 -4 -20 79 79 NW 8 13 30.59 1036 10 16.0934 0 0
3:53 am 03:53 Clear 4 -15.6 -2 -18.9 76 76 NW 9 15 30.57 1035 10 16.0934 0 0
4:53 am 04:53 Clear 4 -15.6 -2 -18.9 76 76 NNW 6 9 30.57 1035 10 16.0934 0 0
5:53 am 05:53 Clear 2 -16.7 -4 -20 76 76 NW 10 17 30.58 1036 10 16.0934 0 0
6:53 am 06:53 Clear 4 -15.6 -2 -18.9 76 76 NNW 7 11 30.56 1035 10 16.0934 0 0
7:53 am 07:53 Sunny 6 -14.4 -1 -18.3 73 73 NW 8 13 30.57 1035 10 16.0934 0 0
8:53 am 08:53 Sunny 10 -12.2 0 -17.8 63 63 NW 8 13 30.56 1035 10 16.0934 0 0
9:53 am 09:53 Sunny 15 -9.4 3 -16.1 59 59 WNW 13 20 30.57 1035 10 16.0934 0 0
10:53 am 10:53 Sunny 18 -7.8 5 -15 57 57 NW 14 22 30.54 1034 10 16.0934 0 0
11:53 am 11:53 Sunny 22 -5.6 7 -13.9 52 52 NW 10 17 30.51 1033 10 16.0934 0 0
12:53 pm 12:53 Sunny 26 -3.3 10 -12.2 51 51 W 8 13 30.49 1032 10 16.0934 0 0
1:53 pm 13:53 Sunny 29 -1.7 13 -10.6 51 51 W 8 13 30.47 1032 10 16.0934 0 0
2:53 pm 14:53 Sunny 31 -0.6 15 -9.4 52 52 WNW 8 13 30.47 1032 10 16.0934 0 0
3:53 pm 15:53 Sunny 30 -1.1 14 -10 51 51 W 5 7 30.47 1032 10 16.0934 0 0
4:53 pm 16:53 Clear 25 -3.9 12 -11.1 58 58 WNW 8 13 30.48 1032 10 16.0934 0 0
5:53 pm 17:53 Clear 21 -6.1 9 -12.8 59 59 NW 8 13 30.5 1033 10 16.0934 0 0
6:53 pm 18:53 Clear 17 -8.3 8 -13.3 68 68 NW 9 15 30.51 1033 10 16.0934 0 0
7:53 pm 19:53 Clear 16 -8.9 6 -14.4 65 65 WNW 8 13 30.52 1033 10 16.0934 0 0
8:53 pm 20:53 Clear 16 -8.9 6 -14.4 65 65 WNW 13 20 30.5 1033 10 16.0934 0 0
9:53 pm 21:53 Clear 13 -10.6 4 -15.6 67 67 WNW 9 15 30.5 1033 10 16.0934 0 0
10:53 pm 22:53 Clear 14 -10 4 -15.6 64 64 NNW 8 13 30.48 1032 10 16.0934 0 0
11:53 pm 23:53 Clear 13 -10.6 4 -15.6 67 67 NW 10 17 30.46 1032 10 16.0934 0 0

Powered by AerisWeather